Regional Weather Roundup
Issued by NWS Newport/Morehead, NC

Current Version | Previous Version | Graphics & Text | Print | Product List | Glossary Off
Versions: 1 2 3 4 5 6 7 8 9 10 11 12 13 14 15 16 17 18 19 20 21 22 23 24 25 26 27 28 29 30 31 32 33 34 35 36 37 38 39 40 41 42 43 44 45 46 47 48 49 50

000
ASUS42 KMHX 160310
RWRMHX
WEATHER ROUNDUP FOR EASTERN NORTH CAROLINA
NATIONAL WEATHER SERVICE NEWPORT/MOREHEAD CITY NC
1100 PM EDT TUE APR 15 2014

NOTE: "FAIR" INDICATES FEW OR NO CLOUDS BELOW 12,000 FEET
WITH NO SIGNIFICANT WEATHER AND/OR OBSTRUCTIONS TO VISIBILITY

NCZ015>017-031-032-045>047-102-103-160400-
NORTH COAST

CITY           SKY/WX    TMP DP  RH WIND       PRES   REMARKS
EDENTON        HVY RAIN  46  45  98 N22G28    29.88R
ELIZABETH CITY RAIN      45  43  93 N28G39    29.86R FOG
KITTY HAWK     LGT RAIN  45  44  96 N18G38    29.80R
MANTEO         HVY RAIN  46  45  97 N36G48    29.80R

$$

NCZ045>047-081-094-103-104-160400-
CENTRAL COAST

CITY           SKY/WX    TMP DP  RH WIND       PRES   REMARKS
FRISCO         CLOUDY    69  66  90 S17G24    29.69F FOG
SWANQUARTER      N/A     50 N/A N/A N18G38    29.77R

$$

NCZ095-097-098-100-101-160400-
SOUTHERN COAST

CITY           SKY/WX    TMP DP  RH WIND       PRES   REMARKS
BEAUFORT       HVY RAIN  57  55  93 NW25G33   29.77R FOG
CEDAR ISLAND     N/A     70 N/A N/A SE16G26   29.71F
JACKSONVILLE   RAIN      52  52 100 NW24G31   29.84R FOG
NEWPORT          N/A     55  54  94 NW16G23     N/A
PINEY ISLAND   HVY RAIN  54  32  43 N36G59    29.76R
WILMINGTON     CLOUDY    52  48  86 NW25G38   29.85R


$$

NCZ011>013-027>030-043-044-078>080-089-090>093-098-160400-
COASTAL PLAIN

CITY           SKY/WX    TMP DP  RH WIND       PRES   REMARKS
AHOSKIE        CLOUDY    42  40  91 N13G21    29.94R
CLINTON        CLOUDY    45  43  91 NW10G20   29.95R
ELIZABETHTOWN  CLOUDY    47  43  86 N10G18    29.94R
GOLDSBORO      LGT RAIN  46  45  97 NW13G21   29.89R
GREENVILLE     LGT RAIN  46  45  93 N16G28    29.93R
HAVELOCK       LGT RAIN  56  52  86 N22G35    29.81R
KENANSVILLE    RAIN      46  44  93 NW14G22   29.92R
KINSTON        RAIN      49  48  97 NW13G20   29.88R
NEW BERN       RAIN      55  51  86 N18G25    29.83R
RICHLANDS      CLOUDY    50  45  81 NW14G23   29.87R
ROANOKE RAPIDS NOT AVBL
ROCKY MOUNT      N/A    N/A N/A N/A MISG      29.92
WASHINGTON     CLOUDY    48  44  85 N22G35    29.86R
WHITEVILLE     CLOUDY    47  43  84 N5        29.92R

$$

AMZ130-135-150-152-154-156-158-170-250-252-270-ANZ085-086-088-633-658-670-160400-
MARINE OBSERVATIONS

STATION/POSITION TIME  TEMP    WIND        PRES    WAVE   SWELL
                       AIR SEA DIR/SP/G            HT/PER HT/PER
                 (UTC) (F)     (DEG/KT/KT) (MB)    (FT/S) (FT/S)
CHESAPEAKE LIGHT 0200   46     340/ 35/ 40 1009.8
BUOY 44014       0300   48 52  350/ 29/ 37 1007.5    9/ 8   7/ 8
DUCK             0300      47  350/ 38/ 43 1006.5
2E DUCK          0300      47                N/A     8/ 6
OREGON INLET     0300      70  350/ 32/ 44 1007.0
BUOY 44095       0300      65                N/A     6/ 8
HATTERAS CG      0300   68 66  170/ 12/ 16 1005.6
DIAMOND BUOY     NOT AVBL
CAPE LOOKOUT     0200   67     170/ 18/ 19 1005.4
BEAUFORT LAB     0300      65  330/ 19/ 33 1005.9
30 SE NEW RIVER  0300   66 64  260/ 17/ 25 1006.4    8/ 8
5 SE WRIGHTSVILL 0200   56 62  340/ 27/ 33 1006.5
FRYING PAN BUOY  0300   60 67  330/ 29/ 35 1007.4    6/ 7   5/ 7
BUOY 41001       NOT AVBL
BUOY 41002       NOT AVBL
BUOY 41004       NOT AVBL

$$



USA.gov is the U.S. government's official web portal to all federal, state and local government web resources and services.